Temp
13 13 13 14 14 13 14 14 14 14 13 13 13 13 13 12 12 12 12 12 12 11 11 11 11 11 11 11 11 11 11 11 11 10 10 10 10 10 10 9 9 9
14 14 14 14 14 14 14 14 14 14 13 13 13 13 13 13 12 12 12 12 12 11 11 12 12 11 11 11 11 11 11 10 10 10 10 10 10 10 10 9 9 9
14 14 14 14 14 14 14 14 14 14 13 13 13 13 13 13 13 12 12 12 12 12 11 12 12 12 11 11 11 11 10 10 10 10 10 10 10 9 9 9 9 9
14 14 14 15 15 14 14 14 14 14 14 13 13 13 13 13 13 12 12 12 12 12 12 12 12 12 11 11 11 11 10 10 10 10 10 10 9 9 9 9 9 9
14 14 15 15 14 14 14 14 14 14 14 13 13 13 13 13 13 13 13 12 12 12 12 12 12 12 11 11 11 11 10 10 10 10 10 10 9 9 9 9 9 9
14 15 15 14 14 14 14 14 14 14 14 13 13 13 13 13 13 13 13 13 12 12 12 12 12 12 11 11 11 11 10 10 10 10 10 10 9 9 9 9 9 9
15 15 15 14 14 14 14 14 14 14 14 14 13 13 13 13 13 13 13 13 13 12 12 12 12 11 11 11 11 11 11 10 10 10 9 9 9 9 9 9 9 9
15 15 15 15 14 15 15 14 14 14 14 14 13 13 13 13 13 13 13 13 13 13 12 12 12 12 11 11 11 11 11 10 10 10 9 9 9 9 9 9 8 8
15 15 15 15 15 15 15 15 14 14 14 14 14 13 13 13 13 13 13 13 13 13 13 12 12 12 12 12 11 11 11 10 10 10 9 9 9 9 9 8 8 8
15 15 15 15 15 15 15 15 14 14 14 14 14 14 13 13 13 13 13 13 13 13 13 12 12 12 12 12 11 11 11 10 10 10 9 9 9 9 8 8 8 8
16 16 15 15 15 15 15 15 14 14 14 14 14 14 14 13 13 13 13 13 13 13 12 12 12 12 12 12 11 11 11 11 10 10 9 9 9 8 8 8 8 8
16 16 16 15 15 15 15 15 14 14 14 14 14 14 14 13 13 13 13 13 13 13 12 12 12 12 12 12 11 11 11 11 10 10 10 9 8 8 8 8 7 7
16 16 15 15 15 15 15 15 14 14 14 14 14 14 14 13 13 13 13 13 13 12 12 12 12 12 12 12 12 11 11 10 10 10 9 9 8 8 8 8 7 7
16 16 15 15 15 15 15 15 14 14 14 14 14 14 14 13 13 13 13 13 13 13 12 12 12 12 12 12 12 11 11 10 10 9 9 9 9 8 8 7 7 7
16 16 15 15 15 15 15 14 14 14 14 14 14 14 13 13 13 13 13 13 13 13 13 12 13 13 12 12 12 11 11 10 10 10 9 9 9 9 8 7 7 7
16 16 15 15 15 15 14 14 14 14 14 14 14 14 14 14 13 13 13 13 13 13 13 13 13 13 13 13 12 12 11 11 11 10 10 9 8 8 8 7 7 7
16 16 15 15 15 14 14 14 14 14 14 14 14 14 14 14 13 13 13 13 13 13 13 13 13 13 13 13 12 12 12 12 11 11 10 9 8 8 7 7 7 6
16 16 15 15 15 15 14 14 14 14 14 14 14 14 14 13 13 13 13 13 13 13 13 13 13 13 13 13 13 12 12 12 12 11 10 10 9 8 8 7 7 6
16 16 16 15 15 15 14 14 14 14 14 14 14 14 14 13 13 13 13 13 13 13 13 13 13 13 13 13 13 12 12 12 12 11 10 10 9 9 8 7 7 7
16 16 16 15 15 15 14 14 14 14 14 14 14 14 14 13 13 13 13 13 13 13 13 13 13 13 13 13 13 12 12 12 12 11 11 10 9 9 8 8 7 7
16 16 16 15 15 15 14 14 14 14 14 14 14 14 14 14 13 13 13 13 13 13 13 13 13 13 13 13 13 12 12 12 12 11 10 9 9 8 8 8 8 8
17 16 16 16 15 15 14 15 14 14 14 14 14 14 14 14 13 13 13 13 13 13 13 13 13 13 13 13 13 12 12 12 12 11 10 9 9 8 8 8 8 7
17 17 16 16 15 15 15 15 14 14 14 14 14 14 14 14 13 13 13 13 13 13 13 13 13 13 13 13 13 12 12 12 12 11 10 10 9 8 8 8 7 7
17 17 16 16 16 15 15 15 14 14 14 14 14 14 14 14 13 13 13 13 13 13 13 13 13 13 13 13 12 12 12 12 12 11 11 10 9 9 8 8 7 7
17 17 16 16 16 16 15 15 14 14 14 14 14 14 13 13 13 13 13 13 13 13 13 13 13 13 12 12 12 12 12 12 11 11 11 10 9 9 8 7 7 7
18 17 17 16 16 16 15 15 14 14 14 14 14 13 13 13 13 13 13 13 13 13 13 13 12 12 12 11 12 12 12 12 11 11 11 10 9 9 8 8 7 7
Height
3178 3179 3181 3182 3183 3185 3186 3187 3189 3191 3192 3194 3195 3196 3197 3199 3200 3201 3202 3202 3203 3204 3204 3205 3205 3205 3205 3205 3205 3205 3205 3205 3205 3204 3204 3203 3203 3202 3201 3200 3199 3198
3175 3177 3178 3179 3181 3182 3184 3185 3187 3189 3191 3192 3193 3194 3196 3197 3198 3199 3200 3201 3202 3202 3203 3203 3204 3204 3204 3204 3204 3204 3204 3204 3204 3203 3203 3202 3201 3201 3200 3200 3199 3198
3173 3174 3175 3177 3179 3180 3182 3183 3185 3187 3189 3190 3191 3193 3194 3195 3196 3197 3198 3199 3200 3201 3201 3201 3202 3202 3203 3202 3202 3202 3202 3202 3202 3202 3201 3201 3200 3200 3199 3199 3198 3197
3170 3171 3173 3175 3177 3178 3180 3181 3183 3185 3187 3188 3190 3191 3192 3193 3194 3196 3197 3197 3198 3199 3199 3200 3200 3200 3201 3201 3201 3200 3200 3200 3200 3200 3200 3200 3199 3199 3198 3197 3197 3196
3167 3169 3171 3172 3174 3176 3177 3179 3181 3183 3185 3186 3188 3189 3190 3192 3193 3194 3195 3195 3196 3197 3198 3198 3198 3198 3199 3199 3199 3199 3198 3198 3198 3198 3198 3198 3198 3197 3197 3196 3195 3194
3165 3166 3168 3169 3171 3173 3174 3177 3179 3181 3183 3184 3186 3187 3188 3189 3190 3191 3192 3193 3194 3195 3196 3196 3196 3196 3196 3197 3197 3197 3197 3196 3196 3196 3196 3196 3196 3195 3195 3194 3193 3193
3162 3163 3165 3167 3169 3170 3172 3174 3176 3178 3180 3182 3184 3185 3186 3187 3188 3189 3190 3191 3192 3193 3193 3194 3194 3194 3194 3194 3194 3195 3194 3194 3194 3194 3194 3194 3193 3193 3192 3192 3191 3191
3160 3161 3162 3164 3166 3167 3169 3171 3173 3175 3178 3179 3181 3183 3184 3185 3186 3187 3188 3189 3190 3190 3191 3191 3192 3192 3192 3191 3192 3192 3192 3192 3191 3191 3191 3191 3190 3190 3190 3189 3189 3189
3157 3158 3160 3161 3163 3164 3166 3168 3170 3173 3175 3176 3179 3180 3181 3182 3183 3184 3185 3186 3187 3188 3188 3189 3189 3189 3189 3189 3189 3189 3189 3189 3189 3188 3189 3188 3188 3187 3187 3187 3186 3187
3154 3156 3157 3158 3160 3162 3164 3166 3168 3170 3172 3174 3176 3177 3178 3180 3181 3182 3183 3183 3184 3185 3185 3186 3186 3187 3187 3186 3186 3186 3186 3186 3186 3185 3185 3186 3186 3185 3184 3184 3184 3184
3151 3153 3154 3155 3157 3159 3161 3163 3164 3166 3169 3171 3173 3174 3175 3177 3178 3179 3180 3181 3181 3182 3183 3183 3183 3184 3184 3184 3184 3184 3184 3183 3183 3182 3182 3182 3183 3182 3181 3181 3181 3181
3149 3150 3151 3153 3155 3156 3158 3159 3161 3163 3166 3168 3169 3171 3172 3174 3175 3176 3177 3178 3179 3179 3180 3180 3180 3180 3181 3181 3181 3181 3181 3180 3180 3180 3179 3179 3179 3178 3178 3178 3178 3178
3146 3147 3149 3151 3152 3153 3155 3156 3158 3160 3162 3164 3166 3168 3169 3170 3172 3173 3175 3175 3176 3176 3177 3177 3177 3177 3178 3178 3178 3178 3178 3177 3177 3177 3176 3175 3175 3174 3174 3174 3174 3174
3143 3144 3146 3148 3150 3151 3152 3153 3155 3157 3159 3161 3163 3164 3166 3168 3169 3171 3172 3172 3173 3173 3174 3174 3174 3174 3175 3175 3175 3175 3175 3174 3174 3173 3173 3172 3171 3171 3171 3171 3171 3171
3140 3142 3143 3145 3146 3147 3148 3150 3152 3153 3156 3157 3159 3161 3163 3165 3166 3168 3168 3169 3170 3170 3171 3171 3171 3172 3172 3172 3172 3172 3171 3171 3170 3169 3169 3168 3168 3167 3167 3167 3167 3167
3137 3138 3140 3141 3143 3144 3145 3146 3148 3150 3152 3154 3155 3158 3159 3161 3163 3164 3165 3166 3166 3167 3167 3168 3168 3169 3169 3169 3169 3169 3168 3167 3166 3165 3164 3164 3164 3163 3163 3163 3163 3163
3134 3135 3136 3137 3139 3140 3142 3143 3145 3147 3149 3150 3152 3154 3156 3158 3159 3160 3161 3162 3163 3164 3164 3165 3165 3166 3166 3166 3166 3165 3164 3163 3162 3161 3160 3159 3159 3159 3159 3159 3159 3160
3131 3132 3133 3134 3135 3137 3138 3140 3142 3144 3145 3147 3149 3151 3153 3155 3156 3157 3158 3159 3160 3161 3161 3162 3162 3163 3163 3162 3162 3161 3160 3158 3158 3157 3156 3155 3155 3155 3155 3155 3155 3156
3127 3128 3129 3130 3131 3133 3135 3137 3139 3140 3141 3143 3145 3148 3150 3151 3152 3154 3155 3156 3157 3158 3158 3159 3159 3159 3159 3159 3158 3157 3156 3154 3153 3153 3152 3151 3151 3151 3151 3151 3151 3152
3123 3124 3126 3127 3128 3130 3132 3134 3135 3136 3138 3140 3142 3144 3146 3147 3149 3150 3151 3153 3154 3154 3155 3156 3156 3156 3156 3156 3155 3153 3152 3151 3150 3149 3149 3148 3147 3148 3148 3147 3147 3147
3118 3120 3122 3123 3125 3127 3128 3130 3131 3133 3135 3137 3139 3140 3142 3144 3146 3147 3148 3149 3151 3151 3152 3153 3153 3153 3153 3153 3152 3150 3149 3148 3146 3146 3145 3144 3144 3144 3144 3144 3144 3144
3114 3116 3118 3119 3121 3123 3124 3126 3128 3129 3132 3133 3135 3137 3139 3141 3142 3143 3145 3146 3147 3148 3149 3149 3150 3150 3150 3150 3149 3148 3146 3144 3143 3142 3142 3141 3141 3141 3141 3141 3140 3140
3109 3112 3114 3116 3117 3119 3120 3122 3124 3126 3128 3130 3132 3133 3135 3137 3138 3140 3141 3142 3143 3144 3145 3146 3146 3147 3147 3146 3146 3144 3143 3141 3140 3138 3137 3137 3137 3137 3137 3137 3137 3137
3105 3108 3110 3112 3113 3115 3117 3119 3121 3123 3125 3126 3128 3130 3132 3134 3135 3136 3137 3138 3139 3140 3141 3142 3143 3143 3143 3143 3141 3140 3139 3138 3136 3135 3134 3133 3133 3133 3133 3133 3133 3132
3101 3103 3106 3108 3110 3112 3114 3115 3117 3119 3121 3123 3125 3127 3129 3130 3131 3132 3133 3134 3136 3137 3138 3138 3138 3139 3139 3138 3137 3136 3135 3134 3133 3131 3130 3130 3130 3129 3129 3129 3129 3128
3097 3099 3101 3104 3106 3108 3110 3112 3113 3115 3117 3120 3121 3123 3124 3126 3127 3129 3130 3131 3132 3133 3134 3134 3134 3134 3134 3133 3132 3131 3130 3129 3128 3127 3126 3126 3125 3125 3125 3125 3125 3124
Wind_Speed
24 22 21 19 18 18 18 17 15 14 14 15 15 14 13 14 14 15 14 12 11 12 10 8 8 8 8 8 9 9 10 11 12 13 13 14 15 16 18 19 21 21
24 22 21 20 19 18 18 17 16 15 15 16 16 15 15 15 16 16 15 13 11 12 11 9 9 10 10 11 12 12 12 12 13 14 15 15 16 17 17 19 20 21
24 23 22 21 19 19 18 18 18 17 17 17 17 17 16 16 16 16 15 13 11 12 13 11 10 10 11 13 14 14 14 14 14 15 16 17 18 18 18 18 19 20
25 23 22 21 20 19 19 20 19 19 18 18 18 18 17 17 16 16 15 13 11 12 13 13 13 12 12 14 15 16 16 17 17 17 18 19 19 19 19 19 19 19
24 23 22 22 22 21 21 21 21 20 19 19 19 18 17 16 15 14 14 12 11 12 13 14 14 14 14 14 15 17 18 18 19 19 19 20 21 21 21 21 20 19
25 24 24 23 23 22 22 22 21 21 20 19 19 18 17 15 14 13 13 12 12 12 13 14 15 15 16 16 16 18 19 19 20 21 21 21 22 23 23 22 21 21
25 25 25 24 24 23 22 22 22 22 21 20 20 18 17 15 14 12 12 12 12 13 13 13 14 16 17 17 17 18 19 21 22 23 23 23 24 24 24 23 22 21
26 26 26 25 25 24 23 23 23 22 21 21 20 18 17 16 14 13 13 13 12 12 13 13 14 16 17 18 18 18 20 22 23 24 24 25 26 26 25 24 23 21
26 26 26 26 25 25 24 23 23 22 21 21 19 18 18 17 15 14 14 13 13 12 13 13 14 15 17 18 19 20 21 23 25 26 25 26 27 26 25 25 24 22
26 27 27 27 26 25 25 24 23 23 22 20 19 19 19 17 16 16 15 14 13 13 13 13 14 15 17 18 20 22 23 24 26 27 27 27 26 26 25 25 25 23
27 28 27 27 26 25 25 25 24 24 22 20 19 19 18 17 17 17 15 14 14 13 13 13 14 15 16 18 20 22 23 24 26 27 27 27 27 26 26 25 25 23
27 28 28 27 26 26 25 25 25 24 23 21 20 19 18 18 18 17 16 15 14 14 14 13 14 15 16 17 19 21 23 24 25 26 26 27 27 27 26 25 25 24
27 28 27 26 26 26 26 26 25 24 23 22 21 20 20 19 18 17 16 15 15 15 15 14 15 15 16 17 18 20 22 24 25 25 26 27 27 26 26 25 24 24
27 27 27 26 25 26 26 26 26 25 24 23 22 22 21 20 18 17 17 17 16 16 15 15 15 15 15 16 18 20 23 25 26 25 25 26 25 25 25 24 23 23
27 27 27 27 27 27 27 27 26 26 25 24 24 23 21 20 19 19 19 18 17 16 15 15 15 14 15 16 18 21 24 25 25 24 23 23 24 24 25 24 22 23
28 28 27 28 28 29 29 28 27 26 26 26 25 24 22 21 20 20 19 17 16 15 15 15 14 14 15 17 19 21 24 24 23 22 20 20 22 24 24 24 22 22
30 29 29 29 29 30 30 29 28 27 27 27 26 25 24 23 22 21 19 17 16 16 16 15 14 15 16 17 19 21 23 23 23 22 21 21 22 24 25 25 23 22
32 32 31 30 30 31 31 30 29 29 29 29 28 27 25 24 23 21 19 18 17 17 16 14 14 15 16 17 20 22 23 24 24 24 23 23 22 23 25 26 24 22
33 34 33 32 31 31 31 31 31 31 31 30 29 27 26 26 24 22 20 19 18 17 15 14 14 16 17 18 21 22 23 25 26 25 24 24 22 21 23 25 23 22
35 35 35 34 33 32 32 32 33 33 32 30 29 28 27 26 24 22 21 19 18 17 15 14 15 16 17 19 21 23 24 26 28 26 24 23 22 21 21 22 20 20
37 36 36 36 35 34 33 33 34 34 33 31 30 29 28 26 24 22 21 20 19 17 16 15 15 16 17 19 22 24 26 29 30 27 24 23 23 22 21 20 19 19
38 37 37 38 38 37 35 35 35 34 33 32 31 30 28 26 25 23 22 21 19 17 16 16 15 15 17 20 23 26 28 30 31 29 25 24 24 23 22 21 21 22
39 38 38 39 39 38 37 36 35 34 33 32 31 30 29 26 25 23 22 21 19 18 18 17 16 16 17 20 23 27 30 31 32 30 27 25 25 24 24 24 24 24
39 39 39 40 40 39 38 37 36 35 33 32 32 30 28 26 25 24 23 22 20 19 19 17 15 15 17 20 24 27 31 33 33 31 28 26 25 25 24 24 25 25
40 39 40 41 41 40 39 38 37 36 34 32 31 30 29 27 26 26 25 23 21 20 18 16 15 15 17 21 24 28 32 35 34 32 29 27 25 25 25 24 25 25
42 40 41 42 42 42 41 40 39 37 35 33 32 32 31 28 27 27 26 24 22 20 18 16 16 17 20 23 27 30 32 34 34 32 29 26 25 25 24 23 23 23
Wind_Direction
231 231 229 227 226 226 228 226 218 210 204 201 201 198 193 192 196 201 205 201 195 206 220 226 234 247 258 267 279 290 297 306 313 321 329 337 346 354 356 356 355 358
228 226 224 223 221 220 222 221 215 205 198 197 198 197 194 194 198 202 207 206 200 210 227 240 244 251 261 267 274 282 288 296 304 311 318 326 335 341 347 350 350 351
226 224 222 221 218 216 218 217 213 205 198 197 198 198 197 197 199 203 210 213 209 215 230 247 257 258 262 267 274 281 286 291 297 304 310 317 324 329 334 339 342 344
224 221 219 218 217 215 215 214 212 207 200 198 199 199 200 201 201 204 210 216 218 223 233 247 260 266 267 269 275 283 287 289 293 298 304 310 316 320 323 327 331 335
223 221 217 216 215 214 214 212 210 208 205 201 202 204 204 206 206 207 213 219 224 230 238 247 257 267 273 275 278 284 286 288 291 294 299 306 311 314 315 318 321 325
221 219 217 215 215 215 213 211 209 209 208 206 206 208 209 211 212 212 218 225 231 237 243 250 257 266 274 278 281 283 286 287 289 291 296 301 306 308 310 312 314 318
219 218 217 215 214 215 214 212 210 210 209 210 210 211 212 215 217 219 224 230 236 241 248 255 261 266 273 279 283 285 286 288 289 291 293 297 301 303 305 306 307 310
219 218 217 216 215 215 214 212 211 210 211 213 213 213 216 219 221 225 230 234 239 244 250 255 260 266 272 279 285 288 288 289 290 291 292 294 297 299 300 300 301 303
219 219 218 216 215 215 215 214 212 212 213 215 215 216 219 222 224 228 233 237 241 244 247 253 259 265 272 279 285 288 290 291 291 290 291 292 294 295 296 295 295 297
220 220 219 217 216 216 215 215 214 214 215 217 217 219 222 224 227 230 234 236 238 242 247 253 260 266 272 278 283 287 288 289 289 289 289 290 290 290 290 290 290 291
221 221 220 218 216 216 216 215 215 216 217 218 219 221 222 224 227 230 231 232 235 243 251 257 263 267 272 276 279 282 283 284 285 286 287 288 286 284 285 286 285 286
222 222 222 219 216 215 215 215 216 216 217 218 220 222 222 223 225 226 226 229 236 245 252 258 264 267 270 274 276 278 280 281 282 283 283 283 280 280 283 283 280 280
223 224 223 220 217 215 215 216 217 217 217 219 221 222 221 220 221 221 223 229 236 244 250 257 263 268 272 277 281 282 283 283 282 281 281 280 278 278 280 279 275 273
223 224 223 220 217 215 215 216 216 216 217 219 221 222 221 220 219 219 223 230 236 242 249 256 262 270 277 283 286 287 285 284 283 281 278 277 277 276 277 276 272 269
221 222 221 220 217 215 215 215 214 215 216 218 220 222 222 221 220 222 226 232 238 244 252 258 265 274 281 286 288 287 286 286 286 283 276 272 272 272 273 274 270 266
219 221 220 219 217 216 216 216 215 214 215 217 219 220 222 222 223 226 230 235 240 248 254 260 268 278 283 286 287 287 288 291 292 288 278 268 267 269 270 271 268 266
219 219 219 219 218 217 217 217 216 216 216 217 218 219 220 223 226 228 232 237 243 249 254 261 271 280 283 284 286 288 292 295 296 292 284 271 265 266 266 264 261 261
220 219 220 220 219 218 217 217 218 218 219 218 218 219 221 224 228 230 233 238 244 248 253 261 271 276 277 281 286 291 296 297 296 294 289 280 274 271 266 261 258 258
220 219 220 221 220 218 217 217 218 219 219 220 220 220 223 226 228 230 234 238 244 248 253 261 268 271 274 281 289 294 297 295 294 294 290 284 283 281 274 268 265 263
222 219 220 221 221 220 217 217 218 219 220 221 222 223 224 226 228 231 235 239 244 247 251 257 263 269 276 283 289 294 293 292 293 293 288 283 283 284 280 274 268 264
225 221 220 221 221 220 219 218 218 220 221 222 223 224 226 227 229 232 236 240 242 245 249 253 259 271 281 284 288 289 289 290 292 291 284 279 280 282 279 274 269 266
228 223 220 221 221 220 220 219 219 220 221 222 223 225 226 227 229 233 237 240 242 244 246 248 257 273 281 283 285 285 286 288 291 290 283 276 276 277 274 271 270 269
228 225 222 221 222 221 220 221 221 222 222 223 224 225 226 227 230 235 239 241 242 244 245 247 259 275 283 285 287 287 287 288 289 289 284 276 274 272 268 266 268 268
226 225 223 223 223 222 221 222 223 223 223 224 225 226 228 229 232 237 241 241 242 243 244 250 264 277 285 289 293 295 295 293 290 288 285 279 275 271 268 267 268 268
224 223 223 223 224 223 222 223 224 226 226 226 228 229 229 230 234 238 240 241 242 242 245 254 267 277 283 291 301 306 302 295 289 287 284 280 276 272 269 267 267 266
226 222 221 222 223 224 223 223 225 227 228 228 229 230 231 233 236 239 240 240 239 240 245 253 264 274 283 294 305 307 300 291 287 285 282 280 276 273 268 264 263 259